Location: Pasadena, ca
(34.1243°N, 118.1037°W)
Time: 16:00:10
(UTC-08:00)

N. Korean satellite - Pass Details

Date: 10 November 2017
Orbit: 460 x 514 km, 97.2° (Epoch: 22 November)

Event Time Altitude Azimuth Distance (km) Brightness Sun altitude
Rises 17:20:00 0° 142° (SE) 2,471 9.9 -6.4°
Reaches altitude 10° 17:22:16 10° 128° (SE) 1,602 8.9 -6.8°
Maximum altitude 17:25:05 24° 73° (ENE) 1,000 7.6 -7.4°
Drops below altitude 10° 17:27:55 10° 18° (NNE) 1,619 8.9 -8.0°
Sets 17:30:13 0° 4° (N) 2,505 10.0 -8.4°
